Home   Weather   Ahvaz   Past weeks

Flag for Iran Past Weather in Ahvaz, Iran — Yesterday and Last 2 Weeks

Now
97 °F

Clear.


Feels Like: 100 °F
Forecast: 85 / 109 °F
Wind: 5 mph from Southwest

Location: Ahwaz

Current Time: May 23, 2017 at 9:30:27 pm

Latest Report: May 23, 2017 at 9:00 pm


Visibility: 5 mi

Pressure: 29.68 "Hg

Humidity: 37%

Dew Point: 66 °F

Location of AhvazLocation

Past Weather in Ahvaz — Graph

°F

Ahvaz Temperature Yesterday

Maximum temperature yesterday: 99 °F (at 2:30 pm)
Minimum temperature yesterday: 73 °F (at 6:30 am)
Average temperature yesterday: 89 °F

High & Low Weather Summary for the Past Weeks

 TemperatureHumidityPressure
High113 °F (May 20, 1:30 pm)69% (May 15, 4:30 am)29.86 "Hg (May 15, 4:30 am)
Low72 °F (May 11, 6:30 am)3% (May 11, 4:00 pm)29.53 "Hg (May 20, 7:00 pm)
Average96 °F27%29.67 "Hg
* Reported May 8 8:30 pm — May 23 8:30 pm, Ahvaz. Weather by CustomWeather, © 2017

Note: Actual official high and low records may vary slightly from our data, if they occured in-between our weather recording intervals... More about our weather records

Advertising

Ahvaz Weather History for the Previous 24 Hours

Scroll right to see more
 ConditionsComfort  
Time TempWeatherWind HumidityBarometerVisibility
8:30 pm
Tue, May 23
97 °FSunny.5 mph39%29.68 "Hg10 mi
8:00 pm97 °FSunny.5 mph39%29.68 "Hg10 mi
7:30 pm99 °FSunny.2 mph37%29.65 "Hg10 mi
7:00 pm100 °FSunny.2 mph27%29.65 "Hg10 mi
6:30 pm104 °FSunny.2 mph23%29.65 "Hg10 mi
6:00 pm106 °FSunny.2 mph25%29.68 "Hg10 mi
5:30 pm106 °FSunny.5 mph25%29.68 "Hg10 mi
5:00 pm106 °FSunny.5 mph22%29.68 "Hg10 mi
4:30 pm104 °FSunny.5 mph26%29.71 "Hg10 mi
4:00 pm104 °FSunny.5 mph19%29.71 "Hg10 mi
3:30 pm104 °FSunny.2 mph20%29.71 "Hg10 mi
3:00 pm106 °FSunny.2 mph20%29.74 "Hg10 mi
2:30 pm104 °FSunny.5 mph21%29.74 "Hg10 mi
2:00 pm104 °FSunny.5 mph23%29.74 "Hg10 mi
1:30 pm100 °FSunny.2 mph25%29.74 "Hg10 mi
1:00 pm100 °FSunny.2 mph21%29.77 "Hg10 mi
12:30 pm100 °FSunny.5 mph22%29.77 "Hg10 mi
12:00 pm97 °FSunny.5 mph30%29.77 "Hg10 mi
11:30 am97 °FSunny.5 mph30%29.77 "Hg10 mi
11:00 am95 °FSunny.2 mph32%29.77 "Hg10 mi
10:30 am90 °FSunny.2 mph31%29.77 "Hg10 mi
10:00 am88 °FSunny.2 mph33%29.77 "Hg10 mi
9:30 am86 °FSunny.5 mph35%29.77 "Hg10 mi
9:00 am82 °FSunny.7 mph37%29.80 "Hg10 mi
8:30 am81 °FSunny.5 mph39%29.77 "Hg10 mi
8:00 am79 °FClear.5 mph42%29.77 "Hg4 mi
7:30 am77 °FClear.7 mph42%29.77 "Hg4 mi
6:30 am75 °FClear.5 mph50%29.77 "Hg10 mi
5:30 am77 °FClear.7 mph47%29.74 "Hg10 mi
4:30 am77 °FClear.7 mph47%29.74 "Hg10 mi
3:30 am79 °FClear.9 mph42%29.74 "Hg10 mi
2:30 am82 °FClear.9 mph35%29.77 "Hg10 mi
1:30 am82 °FClear.9 mph35%29.77 "Hg10 mi
1:00 am84 °FClear.7 mph33%29.77 "Hg10 mi
12:30 am86 °FClear.9 mph31%29.77 "Hg10 mi
11:53 pm
Mon, May 22
86 °FClear.9 mph31%29.77 "Hg10 mi
11:30 pm88 °FClear.9 mph31%29.77 "Hg10 mi
11:00 pm88 °FClear.7 mph29%29.77 "Hg10 mi
10:30 pm88 °FClear.9 mph31%29.77 "Hg10 mi
10:00 pm90 °FClear.9 mph29%29.74 "Hg10 mi
9:30 pm90 °FClear.7 mph29%29.74 "Hg10 mi
9:00 pm90 °FClear.7 mph31%29.74 "Hg10 mi
Weather by CustomWeather, © 2017

See weather overviewHow to use our weather pages